Date_Time,Julian_Date,Latitude,Longitude,Instrument_Depth,U,V,Speed,Direction
(yyyy-mm-dd hh:mn:ss UTC),(JD),(+ deg. North),(+ deg. East),(m),(cm/s),(cm/s),(cm/s),(deg True)
1982-06-14 18:00:00 UTC,2445135.250000,28.7317,-95.2428,0036,30.92,2.16,31.0000,86.0000
1982-06-14 18:30:00 UTC,2445135.270833,28.7317,-95.2428,0036,30.00,0.52,30.0000,89.0000
1982-06-14 19:00:00 UTC,2445135.291667,28.7317,-95.2428,0036,27.98,-0.98,28.0000,92.0000
1982-06-14 19:30:00 UTC,2445135.312500,28.7317,-95.2428,0036,27.96,-1.47,28.0000,93.0000
1982-06-14 20:00:00 UTC,2445135.333333,28.7317,-95.2428,0036,28.00,-0.49,28.0000,91.0000
1982-06-14 20:30:00 UTC,2445135.354167,28.7317,-95.2428,0036,26.98,0.94,27.0000,88.0000
1982-06-14 21:00:00 UTC,2445135.375000,28.7317,-95.2428,0036,26.85,2.82,27.0000,84.0000
1982-06-14 21:30:00 UTC,2445135.395833,28.7317,-95.2428,0036,30.70,4.31,31.0000,82.0000
1982-06-14 22:00:00 UTC,2445135.416667,28.7317,-95.2428,0036,34.57,5.48,35.0000,81.0000
1982-06-14 22:30:00 UTC,2445135.437500,28.7317,-95.2428,0036,37.17,7.90,38.0000,78.0000
1982-06-14 23:00:00 UTC,2445135.458333,28.7317,-95.2428,0036,37.84,9.43,39.0000,76.0000
1982-06-14 23:30:00 UTC,2445135.479167,28.7317,-95.2428,0036,38.64,10.35,40.0000,75.0000
1982-06-15 00:00:00 UTC,2445135.500000,28.7317,-95.2428,0036,38.45,11.03,40.0000,74.0000
1982-06-15 00:30:00 UTC,2445135.520833,28.7317,-95.2428,0036,39.21,11.99,41.0000,73.0000
1982-06-15 01:00:00 UTC,2445135.541667,28.7317,-95.2428,0036,38.77,13.35,41.0000,71.0000
1982-06-15 01:30:00 UTC,2445135.562500,28.7317,-95.2428,0036,39.21,15.05,42.0000,69.0000
1982-06-15 02:00:00 UTC,2445135.583333,28.7317,-95.2428,0036,39.21,15.05,42.0000,69.0000
1982-06-15 02:30:00 UTC,2445135.604167,28.7317,-95.2428,0036,38.28,14.69,41.0000,69.0000
1982-06-15 03:00:00 UTC,2445135.625000,28.7317,-95.2428,0036,39.21,15.05,42.0000,69.0000
1982-06-15 03:30:00 UTC,2445135.645833,28.7317,-95.2428,0036,39.87,16.11,43.0000,68.0000
1982-06-15 04:00:00 UTC,2445135.666667,28.7317,-95.2428,0036,39.87,16.11,43.0000,68.0000
1982-06-15 04:30:00 UTC,2445135.687500,28.7317,-95.2428,0036,42.01,16.13,45.0000,69.0000
1982-06-15 05:00:00 UTC,2445135.708333,28.7317,-95.2428,0036,45.75,17.56,49.0000,69.0000
1982-06-15 05:30:00 UTC,2445135.729167,28.7317,-95.2428,0036,47.92,17.44,51.0000,70.0000
1982-06-15 06:00:00 UTC,2445135.750000,28.7317,-95.2428,0036,49.45,16.07,52.0000,72.0000
1982-06-15 06:30:00 UTC,2445135.770833,28.7317,-95.2428,0036,49.73,15.20,52.0000,73.0000
1982-06-15 07:00:00 UTC,2445135.791667,28.7317,-95.2428,0036,49.45,16.07,52.0000,72.0000
1982-06-15 07:30:00 UTC,2445135.812500,28.7317,-95.2428,0036,49.73,15.20,52.0000,73.0000
1982-06-15 08:00:00 UTC,2445135.833333,28.7317,-95.2428,0036,50.95,14.61,53.0000,74.0000
1982-06-15 08:30:00 UTC,2445135.854167,28.7317,-95.2428,0036,52.16,13.98,54.0000,75.0000
1982-06-15 09:00:00 UTC,2445135.875000,28.7317,-95.2428,0036,53.13,14.24,55.0000,75.0000
1982-06-15 09:30:00 UTC,2445135.895833,28.7317,-95.2428,0036,54.09,14.49,56.0000,75.0000
1982-06-15 10:00:00 UTC,2445135.916667,28.7317,-95.2428,0036,54.34,13.55,56.0000,76.0000
1982-06-15 10:30:00 UTC,2445135.937500,28.7317,-95.2428,0036,55.31,13.79,57.0000,76.0000
1982-06-15 11:00:00 UTC,2445135.958333,28.7317,-95.2428,0036,57.25,14.27,59.0000,76.0000
1982-06-15 11:30:00 UTC,2445135.979167,28.7317,-95.2428,0036,59.44,13.72,61.0000,77.0000
1982-06-15 12:00:00 UTC,2445136.000000,28.7317,-95.2428,0036,60.07,10.59,61.0000,80.0000
1982-06-15 12:30:00 UTC,2445136.020833,28.7317,-95.2428,0036,61.06,10.77,62.0000,80.0000
1982-06-15 13:00:00 UTC,2445136.041667,28.7317,-95.2428,0036,62.04,10.94,63.0000,80.0000
1982-06-15 13:30:00 UTC,2445136.062500,28.7317,-95.2428,0036,62.39,8.77,63.0000,82.0000
1982-06-15 14:00:00 UTC,2445136.083333,28.7317,-95.2428,0036,62.65,6.59,63.0000,84.0000
1982-06-15 14:30:00 UTC,2445136.104167,28.7317,-95.2428,0036,62.76,5.49,63.0000,85.0000
1982-06-15 15:00:00 UTC,2445136.125000,28.7317,-95.2428,0036,62.76,5.49,63.0000,85.0000
1982-06-15 15:30:00 UTC,2445136.145833,28.7317,-95.2428,0036,61.85,4.32,62.0000,86.0000
1982-06-15 16:00:00 UTC,2445136.166667,28.7317,-95.2428,0036,61.92,3.24,62.0000,87.0000
1982-06-15 16:30:00 UTC,2445136.187500,28.7317,-95.2428,0036,62.91,3.30,63.0000,87.0000
1982-06-15 17:00:00 UTC,2445136.208333,28.7317,-95.2428,0036,61.85,4.32,62.0000,86.0000
1982-06-15 17:30:00 UTC,2445136.229167,28.7317,-95.2428,0036,60.67,6.38,61.0000,84.0000
1982-06-15 18:00:00 UTC,2445136.250000,28.7317,-95.2428,0036,59.67,6.27,60.0000,84.0000
1982-06-15 18:30:00 UTC,2445136.270833,28.7317,-95.2428,0036,58.78,5.14,59.0000,85.0000
1982-06-15 19:00:00 UTC,2445136.291667,28.7317,-95.2428,0036,57.68,6.06,58.0000,84.0000
1982-06-15 19:30:00 UTC,2445136.312500,28.7317,-95.2428,0036,55.58,6.82,56.0000,83.0000
1982-06-15 20:00:00 UTC,2445136.333333,28.7317,-95.2428,0036,54.70,5.75,55.0000,84.0000
1982-06-15 20:30:00 UTC,2445136.354167,28.7317,-95.2428,0036,53.70,5.64,54.0000,84.0000
1982-06-15 21:00:00 UTC,2445136.375000,28.7317,-95.2428,0036,52.60,6.46,53.0000,83.0000
1982-06-15 21:30:00 UTC,2445136.395833,28.7317,-95.2428,0036,51.36,8.13,52.0000,81.0000
1982-06-15 22:00:00 UTC,2445136.416667,28.7317,-95.2428,0036,50.23,8.86,51.0000,80.0000
1982-06-15 22:30:00 UTC,2445136.437500,28.7317,-95.2428,0036,48.91,10.40,50.0000,78.0000
1982-06-15 23:00:00 UTC,2445136.458333,28.7317,-95.2428,0036,46.57,11.61,48.0000,76.0000
1982-06-15 23:30:00 UTC,2445136.479167,28.7317,-95.2428,0036,46.57,11.61,48.0000,76.0000
1982-06-16 00:00:00 UTC,2445136.500000,28.7317,-95.2428,0036,45.18,12.95,47.0000,74.0000
1982-06-16 00:30:00 UTC,2445136.520833,28.7317,-95.2428,0036,43.75,14.21,46.0000,72.0000
1982-06-16 01:00:00 UTC,2445136.541667,28.7317,-95.2428,0036,41.60,14.32,44.0000,71.0000
1982-06-16 01:30:00 UTC,2445136.562500,28.7317,-95.2428,0036,40.14,15.41,43.0000,69.0000
1982-06-16 02:00:00 UTC,2445136.583333,28.7317,-95.2428,0036,37.74,16.02,41.0000,67.0000
1982-06-16 02:30:00 UTC,2445136.604167,28.7317,-95.2428,0036,36.54,16.27,40.0000,66.0000
1982-06-16 03:00:00 UTC,2445136.625000,28.7317,-95.2428,0036,35.63,15.86,39.0000,66.0000
1982-06-16 03:30:00 UTC,2445136.645833,28.7317,-95.2428,0036,34.44,16.06,38.0000,65.0000
1982-06-16 04:00:00 UTC,2445136.666667,28.7317,-95.2428,0036,32.63,15.21,36.0000,65.0000
1982-06-16 04:30:00 UTC,2445136.687500,28.7317,-95.2428,0036,30.56,14.90,34.0000,64.0000
1982-06-16 05:00:00 UTC,2445136.708333,28.7317,-95.2428,0036,28.51,14.53,32.0000,63.0000
1982-06-16 05:30:00 UTC,2445136.729167,28.7317,-95.2428,0036,25.61,13.61,29.0000,62.0000
1982-06-16 06:00:00 UTC,2445136.750000,28.7317,-95.2428,0036,23.38,13.50,27.0000,60.0000
1982-06-16 06:30:00 UTC,2445136.770833,28.7317,-95.2428,0036,22.38,15.10,27.0000,56.0000
1982-06-16 07:00:00 UTC,2445136.791667,28.7317,-95.2428,0036,23.46,17.05,29.0000,54.0000
1982-06-16 07:30:00 UTC,2445136.812500,28.7317,-95.2428,0036,22.85,17.85,29.0000,52.0000
1982-06-16 08:00:00 UTC,2445136.833333,28.7317,-95.2428,0036,22.22,18.64,29.0000,50.0000
1982-06-16 08:30:00 UTC,2445136.854167,28.7317,-95.2428,0036,22.54,18.25,29.0000,51.0000
1982-06-16 09:00:00 UTC,2445136.875000,28.7317,-95.2428,0036,23.64,18.47,30.0000,52.0000
1982-06-16 09:30:00 UTC,2445136.895833,28.7317,-95.2428,0036,24.43,19.09,31.0000,52.0000
1982-06-16 10:00:00 UTC,2445136.916667,28.7317,-95.2428,0036,25.56,19.26,32.0000,53.0000
1982-06-16 10:30:00 UTC,2445136.937500,28.7317,-95.2428,0036,26.70,19.40,33.0000,54.0000
1982-06-16 11:00:00 UTC,2445136.958333,28.7317,-95.2428,0036,26.70,19.40,33.0000,54.0000
1982-06-16 11:30:00 UTC,2445136.979167,28.7317,-95.2428,0036,26.70,19.40,33.0000,54.0000
1982-06-16 12:00:00 UTC,2445137.000000,28.7317,-95.2428,0036,27.51,19.98,34.0000,54.0000
1982-06-16 12:30:00 UTC,2445137.020833,28.7317,-95.2428,0036,28.67,20.08,35.0000,55.0000
1982-06-16 13:00:00 UTC,2445137.041667,28.7317,-95.2428,0036,29.02,19.57,35.0000,56.0000
1982-06-16 13:30:00 UTC,2445137.062500,28.7317,-95.2428,0036,30.19,19.61,36.0000,57.0000
1982-06-16 14:00:00 UTC,2445137.083333,28.7317,-95.2428,0036,30.53,19.08,36.0000,58.0000
1982-06-16 14:30:00 UTC,2445137.104167,28.7317,-95.2428,0036,30.86,18.54,36.0000,59.0000
1982-06-16 15:00:00 UTC,2445137.125000,28.7317,-95.2428,0036,30.61,16.97,35.0000,61.0000
1982-06-16 15:30:00 UTC,2445137.145833,28.7317,-95.2428,0036,29.14,15.49,33.0000,62.0000
1982-06-16 16:00:00 UTC,2445137.166667,28.7317,-95.2428,0036,26.85,15.50,31.0000,60.0000
1982-06-16 16:30:00 UTC,2445137.187500,28.7317,-95.2428,0036,24.25,14.00,28.0000,60.0000
1982-06-16 17:00:00 UTC,2445137.208333,28.7317,-95.2428,0036,21.87,12.12,25.0000,61.0000
1982-06-16 17:30:00 UTC,2445137.229167,28.7317,-95.2428,0036,19.42,10.33,22.0000,62.0000
1982-06-16 18:00:00 UTC,2445137.250000,28.7317,-95.2428,0036,16.93,8.63,19.0000,63.0000
1982-06-16 18:30:00 UTC,2445137.270833,28.7317,-95.2428,0036,13.91,5.62,15.0000,68.0000
1982-06-16 19:00:00 UTC,2445137.291667,28.7317,-95.2428,0036,11.28,4.10,12.0000,70.0000
1982-06-16 19:30:00 UTC,2445137.312500,28.7317,-95.2428,0036,8.65,2.48,9.0000,74.0000
1982-06-16 20:00:00 UTC,2445137.333333,28.7317,-95.2428,0036,4.83,1.29,5.0000,75.0000
1982-06-16 20:30:00 UTC,2445137.354167,28.7317,-95.2428,0036,2.78,1.12,3.0000,68.0000
1982-06-16 21:00:00 UTC,2445137.375000,28.7317,-95.2428,0036,0.84,0.54,1.0000,57.0000
1982-06-16 21:30:00 UTC,2445137.395833,28.7317,-95.2428,0036,-0.14,2.00,2.0000,356.0000
1982-06-16 22:00:00 UTC,2445137.416667,28.7317,-95.2428,0036,-1.50,3.71,4.0000,338.0000
1982-06-16 22:30:00 UTC,2445137.437500,28.7317,-95.2428,0036,-3.00,5.20,6.0000,330.0000
1982-06-16 23:00:00 UTC,2445137.458333,28.7317,-95.2428,0036,-4.00,6.93,8.0000,330.0000
1982-06-16 23:30:00 UTC,2445137.479167,28.7317,-95.2428,0036,-3.23,8.40,9.0000,339.0000
1982-06-17 00:00:00 UTC,2445137.500000,28.7317,-95.2428,0036,-1.46,11.91,12.0000,353.0000
1982-06-17 00:30:00 UTC,2445137.520833,28.7317,-95.2428,0036,-0.26,15.00,15.0000,359.0000
1982-06-17 01:00:00 UTC,2445137.541667,28.7317,-95.2428,0036,-0.30,17.00,17.0000,359.0000
1982-06-17 01:30:00 UTC,2445137.562500,28.7317,-95.2428,0036,0.31,18.00,18.0000,1.0000
1982-06-17 02:00:00 UTC,2445137.583333,28.7317,-95.2428,0036,1.66,18.93,19.0000,5.0000
1982-06-17 02:30:00 UTC,2445137.604167,28.7317,-95.2428,0036,3.06,21.79,22.0000,8.0000
1982-06-17 03:00:00 UTC,2445137.625000,28.7317,-95.2428,0036,4.51,25.60,26.0000,10.0000
1982-06-17 03:30:00 UTC,2445137.645833,28.7317,-95.2428,0036,6.53,26.20,27.0000,14.0000
1982-06-17 04:00:00 UTC,2445137.666667,28.7317,-95.2428,0036,7.60,24.86,26.0000,17.0000
1982-06-17 04:30:00 UTC,2445137.687500,28.7317,-95.2428,0036,6.89,24.03,25.0000,16.0000
1982-06-17 05:00:00 UTC,2445137.708333,28.7317,-95.2428,0036,4.34,24.62,25.0000,10.0000
1982-06-17 05:30:00 UTC,2445137.729167,28.7317,-95.2428,0036,3.62,25.75,26.0000,8.0000
1982-06-17 06:00:00 UTC,2445137.750000,28.7317,-95.2428,0036,4.96,25.52,26.0000,11.0000
1982-06-17 06:30:00 UTC,2445137.770833,28.7317,-95.2428,0036,5.81,23.29,24.0000,14.0000
1982-06-17 07:00:00 UTC,2445137.791667,28.7317,-95.2428,0036,7.11,21.87,23.0000,18.0000
1982-06-17 07:30:00 UTC,2445137.812500,28.7317,-95.2428,0036,8.21,19.33,21.0000,23.0000
1982-06-17 08:00:00 UTC,2445137.833333,28.7317,-95.2428,0036,8.77,17.98,20.0000,26.0000
1982-06-17 08:30:00 UTC,2445137.854167,28.7317,-95.2428,0036,8.17,16.04,18.0000,27.0000
1982-06-17 09:00:00 UTC,2445137.875000,28.7317,-95.2428,0036,7.01,14.38,16.0000,26.0000
1982-06-17 09:30:00 UTC,2445137.895833,28.7317,-95.2428,0036,6.57,12.36,14.0000,28.0000
1982-06-17 10:00:00 UTC,2445137.916667,28.7317,-95.2428,0036,6.89,11.02,13.0000,32.0000
1982-06-17 10:30:00 UTC,2445137.937500,28.7317,-95.2428,0036,7.46,10.65,13.0000,35.0000
1982-06-17 11:00:00 UTC,2445137.958333,28.7317,-95.2428,0036,8.18,10.10,13.0000,39.0000
1982-06-17 11:30:00 UTC,2445137.979167,28.7317,-95.2428,0036,8.53,9.81,13.0000,41.0000
1982-06-17 12:00:00 UTC,2445138.000000,28.7317,-95.2428,0036,8.03,8.92,12.0000,42.0000
1982-06-17 12:30:00 UTC,2445138.020833,28.7317,-95.2428,0036,7.36,8.17,11.0000,42.0000
1982-06-17 13:00:00 UTC,2445138.041667,28.7317,-95.2428,0036,8.34,8.63,12.0000,44.0000
1982-06-17 13:30:00 UTC,2445138.062500,28.7317,-95.2428,0036,9.06,7.87,12.0000,49.0000
1982-06-17 14:00:00 UTC,2445138.083333,28.7317,-95.2428,0036,7.88,6.16,10.0000,52.0000
1982-06-17 14:30:00 UTC,2445138.104167,28.7317,-95.2428,0036,6.04,5.25,8.0000,49.0000
1982-06-17 15:00:00 UTC,2445138.125000,28.7317,-95.2428,0036,4.41,5.44,7.0000,39.0000
1982-06-17 15:30:00 UTC,2445138.145833,28.7317,-95.2428,0036,3.07,6.29,7.0000,26.0000
1982-06-17 16:00:00 UTC,2445138.166667,28.7317,-95.2428,0036,2.21,7.69,8.0000,16.0000
1982-06-17 16:30:00 UTC,2445138.187500,28.7317,-95.2428,0036,2.18,8.73,9.0000,14.0000
1982-06-17 17:00:00 UTC,2445138.208333,28.7317,-95.2428,0036,1.66,7.83,8.0000,12.0000
1982-06-17 17:30:00 UTC,2445138.229167,28.7317,-95.2428,0036,-0.12,7.00,7.0000,359.0000
1982-06-17 18:00:00 UTC,2445138.250000,28.7317,-95.2428,0036,-2.72,5.35,6.0000,333.0000
1982-06-17 18:30:00 UTC,2445138.270833,28.7317,-95.2428,0036,-5.09,3.18,6.0000,302.0000
1982-06-17 19:00:00 UTC,2445138.291667,28.7317,-95.2428,0036,-6.82,1.57,7.0000,283.0000
1982-06-17 19:30:00 UTC,2445138.312500,28.7317,-95.2428,0036,-8.00,-0.14,8.0000,269.0000
1982-06-17 20:00:00 UTC,2445138.333333,28.7317,-95.2428,0036,-8.83,-1.72,9.0000,259.0000
1982-06-17 20:30:00 UTC,2445138.354167,28.7317,-95.2428,0036,-9.70,-2.42,10.0000,256.0000
1982-06-17 21:00:00 UTC,2445138.375000,28.7317,-95.2428,0036,-11.78,-2.29,12.0000,259.0000
1982-06-17 21:30:00 UTC,2445138.395833,28.7317,-95.2428,0036,-11.93,-1.25,12.0000,264.0000
1982-06-17 22:00:00 UTC,2445138.416667,28.7317,-95.2428,0036,-11.95,-1.05,12.0000,265.0000
1982-06-17 22:30:00 UTC,2445138.437500,28.7317,-95.2428,0036,-11.97,-0.84,12.0000,266.0000
1982-06-17 23:00:00 UTC,2445138.458333,28.7317,-95.2428,0036,-13.00,0.23,13.0000,271.0000
1982-06-17 23:30:00 UTC,2445138.479167,28.7317,-95.2428,0036,-12.72,2.70,13.0000,282.0000
1982-06-18 00:00:00 UTC,2445138.500000,28.7317,-95.2428,0036,-10.88,5.07,12.0000,295.0000
1982-06-18 00:30:00 UTC,2445138.520833,28.7317,-95.2428,0036,-10.06,6.54,12.0000,303.0000
1982-06-18 01:00:00 UTC,2445138.541667,28.7317,-95.2428,0036,-11.33,8.23,14.0000,306.0000
1982-06-18 01:30:00 UTC,2445138.562500,28.7317,-95.2428,0036,-10.61,10.61,15.0000,315.0000
1982-06-18 02:00:00 UTC,2445138.583333,28.7317,-95.2428,0036,-7.45,15.28,17.0000,334.0000
1982-06-18 02:30:00 UTC,2445138.604167,28.7317,-95.2428,0036,-2.95,16.74,17.0000,350.0000
1982-06-18 03:00:00 UTC,2445138.625000,28.7317,-95.2428,0036,-0.59,16.99,17.0000,358.0000
1982-06-18 03:30:00 UTC,2445138.645833,28.7317,-95.2428,0036,0.30,17.00,17.0000,1.0000
1982-06-18 04:00:00 UTC,2445138.666667,28.7317,-95.2428,0036,0.89,16.98,17.0000,3.0000
1982-06-18 04:30:00 UTC,2445138.687500,28.7317,-95.2428,0036,0.59,16.99,17.0000,2.0000
1982-06-18 05:00:00 UTC,2445138.708333,28.7317,-95.2428,0036,0.26,15.00,15.0000,1.0000
1982-06-18 05:30:00 UTC,2445138.729167,28.7317,-95.2428,0036,0.98,13.97,14.0000,4.0000
1982-06-18 06:00:00 UTC,2445138.750000,28.7317,-95.2428,0036,2.48,12.76,13.0000,11.0000
1982-06-18 06:30:00 UTC,2445138.770833,28.7317,-95.2428,0036,3.22,10.52,11.0000,17.0000
1982-06-18 07:00:00 UTC,2445138.791667,28.7317,-95.2428,0036,2.78,8.56,9.0000,18.0000
1982-06-18 07:30:00 UTC,2445138.812500,28.7317,-95.2428,0036,1.46,6.85,7.0000,12.0000
1982-06-18 08:00:00 UTC,2445138.833333,28.7317,-95.2428,0036,0.35,4.99,5.0000,4.0000
1982-06-18 08:30:00 UTC,2445138.854167,28.7317,-95.2428,0036,0.03,2.00,2.0000,1.0000
1982-06-18 09:00:00 UTC,2445138.875000,28.7317,-95.2428,0036,-0.00,0.00,0.0000,322.0000
1982-06-18 09:30:00 UTC,2445138.895833,28.7317,-95.2428,0036,-0.85,-0.53,1.0000,238.0000
1982-06-18 10:00:00 UTC,2445138.916667,28.7317,-95.2428,0036,-1.58,-1.23,2.0000,232.0000
1982-06-18 10:30:00 UTC,2445138.937500,28.7317,-95.2428,0036,-2.05,-2.19,3.0000,223.0000
1982-06-18 11:00:00 UTC,2445138.958333,28.7317,-95.2428,0036,-2.68,-2.97,4.0000,222.0000
1982-06-18 11:30:00 UTC,2445138.979167,28.7317,-95.2428,0036,-2.93,-2.73,4.0000,227.0000
1982-06-18 12:00:00 UTC,2445139.000000,28.7317,-95.2428,0036,-3.50,-1.94,4.0000,241.0000
1982-06-18 12:30:00 UTC,2445139.020833,28.7317,-95.2428,0036,-3.60,-1.75,4.0000,244.0000
1982-06-18 13:00:00 UTC,2445139.041667,28.7317,-95.2428,0036,-3.50,-1.94,4.0000,241.0000
1982-06-18 13:30:00 UTC,2445139.062500,28.7317,-95.2428,0036,-3.50,-1.94,4.0000,241.0000
1982-06-18 14:00:00 UTC,2445139.083333,28.7317,-95.2428,0036,-3.80,-1.24,4.0000,252.0000
1982-06-18 14:30:00 UTC,2445139.104167,28.7317,-95.2428,0036,-4.96,0.61,5.0000,277.0000
1982-06-18 15:00:00 UTC,2445139.125000,28.7317,-95.2428,0036,-6.29,3.07,7.0000,296.0000
1982-06-18 15:30:00 UTC,2445139.145833,28.7317,-95.2428,0036,-5.52,4.31,7.0000,308.0000
1982-06-18 16:00:00 UTC,2445139.166667,28.7317,-95.2428,0036,-4.59,5.28,7.0000,319.0000
1982-06-18 16:30:00 UTC,2445139.187500,28.7317,-95.2428,0036,-4.11,5.66,7.0000,324.0000
1982-06-18 17:00:00 UTC,2445139.208333,28.7317,-95.2428,0036,-3.91,5.80,7.0000,326.0000
1982-06-18 17:30:00 UTC,2445139.229167,28.7317,-95.2428,0036,-3.69,4.73,6.0000,322.0000
1982-06-18 18:00:00 UTC,2445139.250000,28.7317,-95.2428,0036,-4.79,3.61,6.0000,307.0000
1982-06-18 18:30:00 UTC,2445139.270833,28.7317,-95.2428,0036,-5.77,1.65,6.0000,286.0000
1982-06-18 19:00:00 UTC,2445139.291667,28.7317,-95.2428,0036,-7.00,-0.12,7.0000,269.0000
1982-06-18 19:30:00 UTC,2445139.312500,28.7317,-95.2428,0036,-7.79,-1.80,8.0000,257.0000
1982-06-18 20:00:00 UTC,2445139.333333,28.7317,-95.2428,0036,-10.40,-3.58,11.0000,251.0000
1982-06-18 20:30:00 UTC,2445139.354167,28.7317,-95.2428,0036,-12.98,-5.24,14.0000,248.0000
1982-06-18 21:00:00 UTC,2445139.375000,28.7317,-95.2428,0036,-14.38,-7.01,16.0000,244.0000
1982-06-18 21:30:00 UTC,2445139.395833,28.7317,-95.2428,0036,-14.87,-8.24,17.0000,241.0000
1982-06-18 22:00:00 UTC,2445139.416667,28.7317,-95.2428,0036,-14.72,-8.50,17.0000,240.0000
1982-06-18 22:30:00 UTC,2445139.437500,28.7317,-95.2428,0036,-13.86,-8.00,16.0000,240.0000
1982-06-18 23:00:00 UTC,2445139.458333,28.7317,-95.2428,0036,-13.37,-6.81,15.0000,243.0000
1982-06-18 23:30:00 UTC,2445139.479167,28.7317,-95.2428,0036,-13.70,-6.10,15.0000,246.0000
1982-06-19 00:00:00 UTC,2445139.500000,28.7317,-95.2428,0036,-14.00,-5.38,15.0000,249.0000
1982-06-19 00:30:00 UTC,2445139.520833,28.7317,-95.2428,0036,-14.27,-4.64,15.0000,252.0000
1982-06-19 01:00:00 UTC,2445139.541667,28.7317,-95.2428,0036,-14.42,-4.13,15.0000,254.0000
1982-06-19 01:30:00 UTC,2445139.562500,28.7317,-95.2428,0036,-13.64,-3.15,14.0000,257.0000
1982-06-19 02:00:00 UTC,2445139.583333,28.7317,-95.2428,0036,-12.98,-0.68,13.0000,267.0000
1982-06-19 02:30:00 UTC,2445139.604167,28.7317,-95.2428,0036,-11.88,1.67,12.0000,278.0000
1982-06-19 03:00:00 UTC,2445139.625000,28.7317,-95.2428,0036,-11.41,3.71,12.0000,288.0000
1982-06-19 03:30:00 UTC,2445139.645833,28.7317,-95.2428,0036,-11.26,6.50,13.0000,300.0000
1982-06-19 04:00:00 UTC,2445139.666667,28.7317,-95.2428,0036,-9.66,8.70,13.0000,312.0000
1982-06-19 04:30:00 UTC,2445139.687500,28.7317,-95.2428,0036,-8.18,10.10,13.0000,321.0000
1982-06-19 05:00:00 UTC,2445139.708333,28.7317,-95.2428,0036,-6.36,10.18,12.0000,328.0000
1982-06-19 05:30:00 UTC,2445139.729167,28.7317,-95.2428,0036,-5.33,9.62,11.0000,331.0000
1982-06-19 06:00:00 UTC,2445139.750000,28.7317,-95.2428,0036,-3.66,8.22,9.0000,336.0000
1982-06-19 06:30:00 UTC,2445139.770833,28.7317,-95.2428,0036,-2.63,8.61,9.0000,343.0000
1982-06-19 07:00:00 UTC,2445139.791667,28.7317,-95.2428,0036,-1.53,7.85,8.0000,349.0000
1982-06-19 07:30:00 UTC,2445139.812500,28.7317,-95.2428,0036,0.10,6.00,6.0000,1.0000
1982-06-19 08:00:00 UTC,2445139.833333,28.7317,-95.2428,0036,2.18,3.35,4.0000,33.0000
1982-06-19 08:30:00 UTC,2445139.854167,28.7317,-95.2428,0036,2.76,1.17,3.0000,67.0000
1982-06-19 09:00:00 UTC,2445139.875000,28.7317,-95.2428,0036,4.00,-0.14,4.0000,92.0000
1982-06-19 09:30:00 UTC,2445139.895833,28.7317,-95.2428,0036,5.52,-2.34,6.0000,113.0000
1982-06-19 10:00:00 UTC,2445139.916667,28.7317,-95.2428,0036,6.71,-4.36,8.0000,123.0000
1982-06-19 10:30:00 UTC,2445139.937500,28.7317,-95.2428,0036,7.28,-5.29,9.0000,126.0000
1982-06-19 11:00:00 UTC,2445139.958333,28.7317,-95.2428,0036,7.37,-5.16,9.0000,125.0000
1982-06-19 11:30:00 UTC,2445139.979167,28.7317,-95.2428,0036,8.19,-5.74,10.0000,125.0000
1982-06-19 12:00:00 UTC,2445140.000000,28.7317,-95.2428,0036,7.99,-6.02,10.0000,127.0000
1982-06-19 12:30:00 UTC,2445140.020833,28.7317,-95.2428,0036,8.55,-6.92,11.0000,129.0000
1982-06-19 13:00:00 UTC,2445140.041667,28.7317,-95.2428,0036,7.55,-6.56,10.0000,131.0000
1982-06-19 13:30:00 UTC,2445140.062500,28.7317,-95.2428,0036,7.19,-6.95,10.0000,134.0000
1982-06-19 14:00:00 UTC,2445140.083333,28.7317,-95.2428,0036,5.79,-6.89,9.0000,140.0000
1982-06-19 14:30:00 UTC,2445140.104167,28.7317,-95.2428,0036,4.81,-6.39,8.0000,143.0000
1982-06-19 15:00:00 UTC,2445140.125000,28.7317,-95.2428,0036,3.71,-5.94,7.0000,148.0000
1982-06-19 15:30:00 UTC,2445140.145833,28.7317,-95.2428,0036,2.39,-6.58,7.0000,160.0000
1982-06-19 16:00:00 UTC,2445140.166667,28.7317,-95.2428,0036,0.85,-6.95,7.0000,173.0000
1982-06-19 16:30:00 UTC,2445140.187500,28.7317,-95.2428,0036,-0.85,-6.95,7.0000,187.0000
1982-06-19 17:00:00 UTC,2445140.208333,28.7317,-95.2428,0036,-2.74,-6.44,7.0000,203.0000
1982-06-19 17:30:00 UTC,2445140.229167,28.7317,-95.2428,0036,-3.91,-5.80,7.0000,214.0000
1982-06-19 18:00:00 UTC,2445140.250000,28.7317,-95.2428,0036,-5.25,-6.04,8.0000,221.0000
1982-06-19 18:30:00 UTC,2445140.270833,28.7317,-95.2428,0036,-7.31,-6.82,10.0000,227.0000
1982-06-19 19:00:00 UTC,2445140.291667,28.7317,-95.2428,0036,-9.19,-7.71,12.0000,230.0000
1982-06-19 19:30:00 UTC,2445140.312500,28.7317,-95.2428,0036,-10.72,-9.00,14.0000,230.0000
1982-06-19 20:00:00 UTC,2445140.333333,28.7317,-95.2428,0036,-10.79,-10.42,15.0000,226.0000
1982-06-19 20:30:00 UTC,2445140.354167,28.7317,-95.2428,0036,-11.59,-12.43,17.0000,223.0000
1982-06-19 21:00:00 UTC,2445140.375000,28.7317,-95.2428,0036,-11.57,-13.79,18.0000,220.0000
1982-06-19 21:30:00 UTC,2445140.395833,28.7317,-95.2428,0036,-13.12,-15.09,20.0000,221.0000
1982-06-19 22:00:00 UTC,2445140.416667,28.7317,-95.2428,0036,-14.59,-15.11,21.0000,224.0000
1982-06-19 22:30:00 UTC,2445140.437500,28.7317,-95.2428,0036,-16.35,-14.72,22.0000,228.0000
1982-06-19 23:00:00 UTC,2445140.458333,28.7317,-95.2428,0036,-18.02,-12.62,22.0000,235.0000
1982-06-19 23:30:00 UTC,2445140.479167,28.7317,-95.2428,0036,-18.87,-9.21,21.0000,244.0000
1982-06-20 00:00:00 UTC,2445140.500000,28.7317,-95.2428,0036,-19.23,-5.51,20.0000,254.0000
1982-06-20 00:30:00 UTC,2445140.520833,28.7317,-95.2428,0036,-19.63,-3.82,20.0000,259.0000
1982-06-20 01:00:00 UTC,2445140.541667,28.7317,-95.2428,0036,-19.81,-2.78,20.0000,262.0000
1982-06-20 01:30:00 UTC,2445140.562500,28.7317,-95.2428,0036,-20.00,-0.35,20.0000,269.0000
1982-06-20 02:00:00 UTC,2445140.583333,28.7317,-95.2428,0036,-18.90,1.99,19.0000,276.0000
1982-06-20 02:30:00 UTC,2445140.604167,28.7317,-95.2428,0036,-17.78,2.82,18.0000,279.0000
1982-06-20 03:00:00 UTC,2445140.625000,28.7317,-95.2428,0036,-16.50,4.11,17.0000,284.0000
1982-06-20 03:30:00 UTC,2445140.645833,28.7317,-95.2428,0036,-14.38,7.01,16.0000,296.0000
1982-06-20 04:00:00 UTC,2445140.666667,28.7317,-95.2428,0036,-11.32,9.84,15.0000,311.0000
1982-06-20 04:30:00 UTC,2445140.687500,28.7317,-95.2428,0036,-9.00,10.72,14.0000,320.0000
1982-06-20 05:00:00 UTC,2445140.708333,28.7317,-95.2428,0036,-8.81,10.88,14.0000,321.0000
1982-06-20 05:30:00 UTC,2445140.729167,28.7317,-95.2428,0036,-9.64,11.49,15.0000,320.0000
1982-06-20 06:00:00 UTC,2445140.750000,28.7317,-95.2428,0036,-9.85,12.61,16.0000,322.0000
1982-06-20 06:30:00 UTC,2445140.770833,28.7317,-95.2428,0036,-7.27,13.12,15.0000,331.0000
1982-06-20 07:00:00 UTC,2445140.791667,28.7317,-95.2428,0036,-3.80,12.43,13.0000,343.0000
1982-06-20 07:30:00 UTC,2445140.812500,28.7317,-95.2428,0036,-2.70,12.72,13.0000,348.0000